Regional Weather Roundup
Issued by NWS

Home | Current Version | Previous Version | Graphics & Text | Print | Product List | Glossary Off
Versions: 1 2 3 4 5 6 7 8 9 10 11 12 13 14 15 16 17 18 19 20 21 22 23 24 25 26 27 28 29 30 31 32 33 34 35 36 37 38 39 40 41 42 43 44 45 46 47 48 49 50

000
ASUS43 KDMX 292308
RWRIA

WEATHER ROUNDUP FOR IOWA
NATIONAL WEATHER SERVICE DES MOINES IA
600 PM CDT FRI JUL 29 2016

NOTE: "FAIR" INDICATES FEW OR NO CLOUDS BELOW 12,000 FEET WITH NO
SIGNIFICANT WEATHER AND/OR OBSTRUCTIONS TO VISIBILITY.

* - THESE STATIONS ARE NOT NWS STATIONS...THUS NOT UNDER NWS
QUALITY CONTROL.  THEY ALSO DO NOT REPORT WEATHER SUCH
AS PRECIPITATION OR FOG.

IAZ001>003-012>014-020>022-031>034-043>046-300000-
   NORTHWEST IOWA

CITY           SKY/WX    TMP DP  RH WIND       PRES   REMARKS
CARROLL *      CLOUDY    73  63  68 NE14      30.02S
CHEROKEE *     MOSUNNY   75  62  64 NE5       30.02F
DENISON *      MOSUNNY   73  63  68 NE10      30.00S
LE MARS *      MOSUNNY   75  61  60 VRB3      30.03S
SHELDON *      SUNNY     75  59  57 NE5G12    30.02F
SIOUX CITY     PTSUNNY   80  59  48 NE12      30.01S HX  81
SPENCER        MOSUNNY   74  61  63 E5        30.03F
STORM LAKE *     N/A     75  63  64 NE10      30.03F
$$

IAZ055>058-069>071-079>083-090>094-300000-
   SOUTHWEST IOWA

CITY           SKY/WX    TMP DP  RH WIND       PRES   REMARKS
ATLANTIC *     MOSUNNY   73  64  73 N10G16    30.01S
CLARINDA *       N/A     77  64  65 MISG      30.01F
COUNCIL BLFS * MOSUNNY   77  64  65 N10       30.01S
CRESTON *      CLOUDY    73  64  73 N10G16    30.02S
HARLAN  *      SUNNY     75  64  69 N9G15     30.05S
LAMONI         PTSUNNY   76  66  71 N9        29.99R
RED OAK *      PTSUNNY   77  66  69 N10       30.01S
SHENANDOAH *   MOSUNNY   79  64  61 N8G14     30.00S HX  81
$$

IAZ047>049-059>061-072>074-084-300000-
   CENTRAL IOWA

CITY           SKY/WX    TMP DP  RH WIND       PRES   REMARKS
AMES           CLOUDY    71  66  84 N7        29.99F
ANKENY *         N/A    N/A N/A N/A MISG        N/A
BOONE *        CLOUDY    70  64  83 N9        30.00S
CHARITON *       N/A    N/A N/A N/A MISG        N/A
DES MOINES     LGT RAIN  71  64  78 N8        29.99R
GRINNELL*      CLOUDY    71  65  83 N7        29.99S
KNOXVILLE *    CLOUDY    70  64  83 NW9       29.98S
MARSHALLTOWN   CLOUDY    72  66  81 N12       29.98S
NEWTON *       CLOUDY    70  66  88 N12       29.98S
PELLA *        DRIZZLE   69  66  91 NW3       30.00S
PERRY *        CLOUDY    70  65  86 N6        30.01S
$$

IAZ004>006-015-016-023>025-035-036-300000-
   NORTH CENTRAL IOWA

CITY           SKY/WX    TMP DP  RH WIND       PRES   REMARKS
ALGONA *       CLOUDY    72  63  73 NE7       30.03F
ESTHERVILLE    MOSUNNY   75  58  55 N10       30.03F
FORT DODGE *   CLOUDY    72  63  73 N5        30.02F
MASON CITY     CLOUDY    72  62  71 N3        30.03S
FOREST CITY *  CLOUDY    70  63  78 N3        30.02F
IOWA FALLS *   CLOUDY    74  64  72 N8        30.01F
$$

IAZ007>011-017>019-026>030-037>042-050>054-066-300000-
   NORTHEAST IOWA

CITY           SKY/WX    TMP DP  RH WIND       PRES   REMARKS
CEDAR RAPIDS   CLOUDY    71  68  90 N10       29.95S
CHARLES CITY * CLOUDY    72  66  83 NE6       30.01S
CLINTON *      PTSUNNY   75  70  83 NE16      29.94R
DECORAH *      CLOUDY    72  66  83 N7        30.00R
DUBUQUE        CLOUDY    70  67  90 N8        29.98R
MONTICELLO *   CLOUDY    70  66  88 N10       29.97R
OELWEIN *      CLOUDY    70  64  83 NE10      30.00S
WATERLOO       CLOUDY    71  64  78 NE8       29.98S
$$

IAZ064-065-067-068-078-300000-
   EAST CENTRAL IOWA

CITY           SKY/WX    TMP DP  RH WIND       PRES   REMARKS
DAVENPORT      CLOUDY    76  68  76 N8        29.93S
IOWA CITY      PTSUNNY   76  67  73 N14       29.95R
MT. PLEASANT * PTSUNNY   80  67  65 W9G16     29.95S HX  82
MUSCATINE *    MOSUNNY   79  68  69 N7G13     29.93S HX  81
QUAD CITIES    CLOUDY    75  69  81 E9        29.92R
$$

IAZ062-063-075>077-085>089-095>099-300000-
   SOUTHEAST IOWA

CITY           SKY/WX    TMP DP  RH WIND       PRES   REMARKS
BURLINGTON     MOSUNNY   77  67  71 MISG      29.94R
FAIRFIELD *    MOSUNNY   75  64  69 W10       29.95S
KEOKUK *       MOSUNNY   79  64  61 W8        29.94S HX  81
OSKALOOSA *    CLOUDY    72  66  82 NW10      29.98R
CENTERVILLE *    N/A     75  64  69 CALM      29.99S
OTTUMWA        MOSUNNY   74  65  73 NW13      29.97R
WASHINGTON *   PTSUNNY   75  68  78 NW13      29.96R
$$

ABBREVIATIONS USED IN REMARKS
   TC - TEMPERATURES IN CELSIUS
  WCI - WIND CHILL INDEX
   HX - HEAT INDEX
  VSB - VISIBILITY
$$





USA.gov is the U.S. government's official web portal to all federal, state and local government web resources and services.